Location: Newark
(45.2500°N, 7.5833°E)
Time: 11:42:04
(UTC+00:00)

N. Korean satellite - Pass Details

Date: 20 December 2019
Orbit: 454 x 508 km, 97.2° (Epoch: 17 January)

Event Time Altitude Azimuth Distance (km) Brightness Sun altitude
Rises 17:37:25 0° 211° (SSW) 2,584 11.0 -18.1°
Reaches altitude 10° 17:40:27 10° 239° (WSW) 1,698 10.5 -18.6°
Maximum altitude 17:42:15 13° 269° (W) 1,504 10.1 -18.9°
Drops below altitude 10° 17:44:03 10° 299° (WNW) 1,692 9.9 -19.3°
Sets 17:47:05 0° 328° (NNW) 2,567 10.5 -19.8°
